This demonstration page uses our WeatherBlox Daily Observations layout. Learn more.

Left ArrowRight Arrow

Hourly Observations for November 21, 2022

Temp ( °F °C ) Dew Point ( °F °C ) Humidity (%) Winds ( mph kmh ) Pressure ( in mb ) Visibility ( mi km ) Precip ( " mm )
12:55 am 00:55 Clear 29 -1.6 11 -11.7 46 46 S 3 6 30.16 1021 10 16 0.00 0.00
1:55 am 01:55 Clear 28 -2 12 -11.3 49 49 Calm 30.16 1022 10 16 0.00 0.00
2:55 am 02:55 Clear 27 -2.6 13 -10.6 54 54 Calm 30.18 1022 10 16 0.00 0.00
3:55 am 03:55 Clear 26 -3.4 13 -10.3 59 59 S 3 6 30.16 1022 10 16 0.00 0.00
4:55 am 04:55 Clear 25 -4 13 -10.4 61 61 Calm 30.18 1022 10 16 0.00 0.00
5:55 am 05:55 Clear 25 -3.7 13 -10.3 60 60 SSW 3 6 30.19 1023 10 16 0.00 0.00
6:55 am 06:55 Clear 25 -4.1 13 -10.7 60 60 Calm 30.22 1023 10 16 0.00 0.00
7:55 am 07:55 Sunny 25 -4.1 13 -10.7 60 60 Calm 30.24 1024 10 16 0.00 0.00
8:55 am 08:55 Sunny 29 -1.8 15 -9.2 57 57 Calm 30.26 1025 10 16 0.00 0.00
9:55 am 09:55 Sunny 35 1.6 14 -9.9 42 42 W 3 6 30.27 1025 10 16 0.00 0.00
10:55 am 10:55 Sunny 41 5.1 13 -10.3 32 32 W 5 7 30.27 1025 10 16 0.00 0.00
11:55 am 11:55 Sunny 47 8.1 13 -10.3 26 26 Calm 30.27 1025 10 16 0.00 0.00
12:55 pm 12:55 Sunny 50 9.8 13 -10.4 23 23 Calm 30.25 1024 10 16 0.00 0.00
1:55 pm 13:55 Sunny 52 11 15 -9.4 23 23 NW 5 7 30.24 1024 10 16 0.00 0.00
2:55 pm 14:55 Sunny 53 11.6 14 -10 21 21 NW 7 11 30.24 1024 10 16 0.00 0.00
3:55 pm 15:55 Sunny 52 11.2 14 -9.8 22 22 NW 7 11 30.25 1024 10 16 0.00 0.00
4:55 pm 16:55 Sunny 49 9.6 14 -10 24 24 NE 3 6 30.27 1025 10 16 0.00 0.00
5:55 pm 17:55 Clear 45 7 13 -10.3 28 28 N 5 7 30.28 1026 10 16 0.00 0.00
6:55 pm 18:55 Clear 39 3.7 14 -10 36 36 Calm 30.30 1026 10 16 0.00 0.00
7:55 pm 19:55 Clear 36 2 15 -9.6 42 42 Calm 30.30 1026 10 16 0.00 0.00
8:55 pm 20:55 Clear 34 1.2 15 -9.4 45 45 Calm 30.30 1026 10 16 0.00 0.00
9:55 pm 21:55 Clear 28 -2.2 16 -9.1 59 59 Calm 30.31 1026 10 16 0.00 0.00
10:55 pm 22:55 Clear 29 -1.4 16 -8.8 57 57 Calm 30.30 1026 10 16 0.00 0.00
11:55 pm 23:55 Clear 29 -1.9 16 -9.1 58 58 Calm 30.30 1026 10 16 0.00 0.00

Powered by AerisWeather